This is the latest recevied weather packets stored in our database for station/object LKLN. If no packets are shown the sender has not sent any weather packets the latest 10 day(s).
| Time | Temp. | Humidity | Pressure | Rain* | Wind** | Luminosity | Snow |
|---|---|---|---|---|---|---|---|
| 1788321665 | 10° C | 100% | 1022 hPa | - | - | - | - |
| 1788319870 | 11.11° C | 93% | 1022 hPa | - | - | - | - |
| 1788318064 | 12.22° C | 87% | 1022 hPa | - | - | - | - |
| 1788316270 | 11.11° C | 93% | 1022 hPa | - | - | - | - |
| 1788314470 | 11.11° C | 93% | 1022 hPa | - | - | - | - |
| 1788312670 | 11.11° C | 93% | 1022 hPa | - | - | - | - |
| 1788310872 | 12.22° C | 87% | 1022 hPa | - | - | - | - |
| 1788309070 | 12.22° C | 87% | 1022 hPa | - | - | - | - |
| 1788307264 | 12.78° C | 82% | 1022 hPa | - | - | - | - |
| 1788305470 | 12.78° C | 87% | 1022 hPa | - | - | - | - |
| 1788303672 | 13.89° C | 82% | 1022 hPa | - | - | - | - |
| 1788301869 | 12.78° C | 87% | 1022 hPa | - | - | - | - |
| 1788300072 | 13.89° C | 82% | 1022 hPa | - | - | - | - |
| 1788298269 | 15° C | 77% | 1022 hPa | - | - | - | - |
| 1788296465 | 15° C | 77% | 1022 hPa | - | - | - | - |
| 1788294670 | 16.11° C | 72% | 1021 hPa | - | - | - | - |
| 1788292871 | 15° C | 72% | 1021 hPa | - | - | - | - |
| 1788291069 | 16.11° C | 67% | 1021 hPa | - | - | - | - |
| 1788289271 | 18.89° C | 55% | 1021 hPa | - | - | - | - |
| 1788287470 | 20° C | 52% | 1021 hPa | - | - | - | - |
| 1788285671 | 20° C | 49% | 1021 hPa | - | - | - | - |
| 1788283869 | 21.11° C | 46% | 1020 hPa | - | - | - | - |
| 1788282064 | 22.22° C | 43% | 1020 hPa | - | - | - | - |
| 1788280270 | 22.78° C | 40% | 1021 hPa | - | - | - | - |
| 1788278471 | 22.78° C | 40% | 1020 hPa | - | - | - | - |
* Rain since midnight (hover to see other rain measurements)
** Current wind speed in m/s (hover to see current wind gust speed)